GLACB EGCB-EGNS

Flight info

Callsign GLACB
Flight time 0h 47m
Altitude 7000
Route EGCB WAL L10 PENIL EGNS
Aircraft P28A/L-SFG/C

Departure

Time 2026-04-22 15:38
Airport Manchester Barton Aerodrome (EGCB)

Arrival

Time 2026-04-22 16:25
Airport Isle of Man Airport (EGNS)
Time Latitude Longitude Altitude Speed Heading
2026-04-22 15:29 53.47115 -2.38736 72 ft 0 kts 349°
2026-04-22 15:33 53.47116 -2.38736 72 ft 2 kts 348°
2026-04-22 15:33 53.47116 -2.38777 65 ft 4 kts 226°
2026-04-22 15:34 53.47097 -2.38809 74 ft 1 kts 279°
2026-04-22 15:34 53.47101 -2.38811 74 ft 0 kts 19°
2026-04-22 15:35 53.47115 -2.38816 72 ft 5 kts 310°
2026-04-22 15:35 53.47117 -2.38862 75 ft 4 kts 260°
2026-04-22 15:35 53.47113 -2.38942 73 ft 10 kts 271°
2026-04-22 15:36 53.47101 -2.39081 68 ft 15 kts 261°
2026-04-22 15:36 53.47089 -2.39236 71 ft 12 kts 265°
2026-04-22 15:36 53.47080 -2.39363 71 ft 10 kts 264°
2026-04-22 15:36 53.47080 -2.39411 73 ft 0 kts 280°
2026-04-22 15:37 53.47087 -2.39474 73 ft 8 kts 283°
2026-04-22 15:37 53.47111 -2.39492 71 ft 2 kts 72°
2026-04-22 15:37 53.47145 -2.39125 68 ft 61 kts 82°
2026-04-22 15:37 53.47206 -2.38281 255 ft 77 kts 78°
2026-04-22 15:38 53.47256 -2.37381 584 ft 75 kts 73°
2026-04-22 15:38 53.48222 -2.37012 1232 ft 120 kts 322°
2026-04-22 15:38 53.48466 -2.38515 1317 ft 149 kts 281°
2026-04-22 15:39 53.48896 -2.40109 1324 ft 151 kts 309°
2026-04-22 15:39 53.49543 -2.41490 1323 ft 149 kts 316°
2026-04-22 15:39 53.50177 -2.42850 1325 ft 147 kts 315°
2026-04-22 15:39 53.50807 -2.44193 1320 ft 145 kts 314°
2026-04-22 15:40 53.51434 -2.45500 1325 ft 143 kts 315°
2026-04-22 15:40 53.52057 -2.46804 1320 ft 143 kts 315°
2026-04-22 15:40 53.52625 -2.48180 1307 ft 146 kts 295°
2026-04-22 15:40 53.52852 -2.49863 1324 ft 149 kts 283°
2026-04-22 15:41 53.53049 -2.51515 1525 ft 141 kts 283°
2026-04-22 15:41 53.53024 -2.53089 1707 ft 134 kts 247°
2026-04-22 15:41 53.52749 -2.54592 1911 ft 135 kts 249°
2026-04-22 15:41 53.52454 -2.56088 2105 ft 133 kts 240°
2026-04-22 15:42 53.52212 -2.57018 2241 ft 130 kts 239°
2026-04-22 15:42 53.51859 -2.58381 2440 ft 126 kts 240°
2026-04-22 15:42 53.51523 -2.59699 2656 ft 122 kts 240°
2026-04-22 15:42 53.51183 -2.61020 2856 ft 123 kts 240°
2026-04-22 15:43 53.50850 -2.62322 3056 ft 120 kts 240°
2026-04-22 15:43 53.50522 -2.63617 3269 ft 122 kts 238°
2026-04-22 15:43 53.50215 -2.64943 3474 ft 120 kts 239°
2026-04-22 15:43 53.49920 -2.66244 3666 ft 120 kts 240°
2026-04-22 15:44 53.49543 -2.67437 3869 ft 112 kts 227°
2026-04-22 15:44 53.49163 -2.68574 4064 ft 111 kts 229°
2026-04-22 15:44 53.48785 -2.69672 4268 ft 107 kts 227°
2026-04-22 15:44 53.48390 -2.70830 4485 ft 120 kts 228°
2026-04-22 15:45 53.47955 -2.72064 4712 ft 126 kts 227°
2026-04-22 15:45 53.47506 -2.73365 4940 ft 131 kts 228°
2026-04-22 15:45 53.47048 -2.74695 5155 ft 132 kts 228°
2026-04-22 15:45 53.46592 -2.76049 5364 ft 134 kts 228°
2026-04-22 15:46 53.46131 -2.77413 5562 ft 135 kts 228°
2026-04-22 15:46 53.45667 -2.78783 5772 ft 135 kts 229°
2026-04-22 15:46 53.45198 -2.80149 5976 ft 135 kts 229°
2026-04-22 15:46 53.44732 -2.81482 6183 ft 133 kts 228°
2026-04-22 15:47 53.44267 -2.82813 6390 ft 131 kts 229°
2026-04-22 15:47 53.43805 -2.84129 6593 ft 131 kts 229°
2026-04-22 15:47 53.43347 -2.85452 6799 ft 131 kts 229°
2026-04-22 15:47 53.42831 -2.86650 6984 ft 120 kts 207°
2026-04-22 15:48 53.42224 -2.87648 7178 ft 127 kts 222°
2026-04-22 15:48 53.41888 -2.89071 7360 ft 137 kts 248°
2026-04-22 15:48 53.41684 -2.90706 7382 ft 149 kts 251°
2026-04-22 15:48 53.41405 -2.92388 7385 ft 151 kts 244°
2026-04-22 15:49 53.41469 -2.94221 7378 ft 165 kts 279°
2026-04-22 15:49 53.41749 -2.96101 7391 ft 167 kts 279°
2026-04-22 15:49 53.42101 -2.97964 7391 ft 170 kts 291°
2026-04-22 15:49 53.42634 -2.99746 7391 ft 171 kts 294°
2026-04-22 15:50 53.43163 -3.01513 7389 ft 172 kts 294°
2026-04-22 15:50 53.43698 -3.03303 7391 ft 171 kts 294°
2026-04-22 15:50 53.44235 -3.05105 7386 ft 172 kts 294°
2026-04-22 15:50 53.44773 -3.06904 7388 ft 173 kts 294°
2026-04-22 15:51 53.45320 -3.08708 7387 ft 174 kts 294°
2026-04-22 15:51 53.45869 -3.10511 7386 ft 174 kts 294°
2026-04-22 15:51 53.46416 -3.12316 7386 ft 173 kts 294°
2026-04-22 15:51 53.46959 -3.14120 7386 ft 173 kts 294°
2026-04-22 15:52 53.47501 -3.15921 7385 ft 172 kts 294°
2026-04-22 15:52 53.48042 -3.17718 7384 ft 172 kts 294°
2026-04-22 15:52 53.48583 -3.19509 7384 ft 172 kts 294°
2026-04-22 15:52 53.49119 -3.21280 7384 ft 172 kts 294°
2026-04-22 15:53 53.49661 -3.23070 7386 ft 172 kts 294°
2026-04-22 15:53 53.50209 -3.24858 7385 ft 172 kts 294°
2026-04-22 15:53 53.50760 -3.26641 7387 ft 172 kts 294°
2026-04-22 15:53 53.51311 -3.28426 7387 ft 172 kts 294°
2026-04-22 15:54 53.51865 -3.30216 7385 ft 173 kts 294°
2026-04-22 15:54 53.52418 -3.32009 7382 ft 173 kts 294°
2026-04-22 15:54 53.52972 -3.33808 7382 ft 173 kts 294°
2026-04-22 15:54 53.53525 -3.35604 7381 ft 173 kts 294°
2026-04-22 15:55 53.54079 -3.37401 7384 ft 173 kts 295°
2026-04-22 15:55 53.54633 -3.39199 7383 ft 173 kts 295°
2026-04-22 15:55 53.55182 -3.40974 7383 ft 173 kts 295°
2026-04-22 15:55 53.55739 -3.42772 7382 ft 173 kts 295°
2026-04-22 15:56 53.56298 -3.44568 7378 ft 173 kts 295°
2026-04-22 15:56 53.56857 -3.46365 7377 ft 173 kts 295°
2026-04-22 15:56 53.57413 -3.48159 7375 ft 173 kts 295°
2026-04-22 15:56 53.57969 -3.49948 7374 ft 172 kts 295°
2026-04-22 15:57 53.58526 -3.51738 7374 ft 173 kts 295°
2026-04-22 15:57 53.59085 -3.53528 7367 ft 173 kts 295°
2026-04-22 15:57 53.59644 -3.55313 7366 ft 172 kts 295°
2026-04-22 15:57 53.60202 -3.57098 7364 ft 172 kts 295°
2026-04-22 15:58 53.60757 -3.58894 7362 ft 171 kts 292°
2026-04-22 15:58 53.61055 -3.60809 7356 ft 168 kts 273°
2026-04-22 15:58 53.61224 -3.62760 7357 ft 169 kts 273°
2026-04-22 15:58 53.61418 -3.64700 7365 ft 167 kts 274°
2026-04-22 15:59 53.61725 -3.66573 7352 ft 170 kts 296°
2026-04-22 15:59 53.62462 -3.68129 7348 ft 170 kts 309°
2026-04-22 15:59 53.63232 -3.69652 7349 ft 171 kts 308°
2026-04-22 15:59 53.63986 -3.71168 7350 ft 171 kts 308°
2026-04-22 16:00 53.64747 -3.72705 7350 ft 170 kts 308°
2026-04-22 16:00 53.65502 -3.74231 7340 ft 169 kts 308°
2026-04-22 16:00 53.66253 -3.75748 7341 ft 168 kts 307°
2026-04-22 16:00 53.67002 -3.77264 7340 ft 168 kts 307°
2026-04-22 16:01 53.67750 -3.78778 7345 ft 167 kts 307°
2026-04-22 16:01 53.68494 -3.80284 7342 ft 167 kts 308°
2026-04-22 16:01 53.69234 -3.81784 7348 ft 166 kts 308°
2026-04-22 16:01 53.69972 -3.83280 7347 ft 166 kts 308°
2026-04-22 16:02 53.70710 -3.84779 7348 ft 166 kts 308°
2026-04-22 16:02 53.71447 -3.86275 7348 ft 166 kts 308°
2026-04-22 16:02 53.72176 -3.87755 7347 ft 166 kts 308°
2026-04-22 16:02 53.72912 -3.89252 7347 ft 166 kts 308°
2026-04-22 16:03 53.73653 -3.90758 7347 ft 166 kts 308°
2026-04-22 16:03 53.74390 -3.92258 7347 ft 166 kts 308°
2026-04-22 16:03 53.75128 -3.93761 7347 ft 166 kts 308°
2026-04-22 16:03 53.75868 -3.95268 7347 ft 166 kts 308°
2026-04-22 16:04 53.76607 -3.96775 7345 ft 166 kts 308°
2026-04-22 16:04 53.77347 -3.98283 7344 ft 166 kts 308°
2026-04-22 16:04 53.78084 -3.99789 7353 ft 166 kts 308°
2026-04-22 16:04 53.78821 -4.01294 7353 ft 166 kts 308°
2026-04-22 16:05 53.79557 -4.02799 7352 ft 166 kts 308°
2026-04-22 16:05 53.80278 -4.04272 7261 ft 161 kts 308°
2026-04-22 16:05 53.80980 -4.05708 7133 ft 159 kts 308°
2026-04-22 16:05 53.81686 -4.07154 6959 ft 160 kts 308°
2026-04-22 16:06 53.82397 -4.08611 6787 ft 160 kts 308°
2026-04-22 16:06 53.83109 -4.10070 6608 ft 161 kts 308°
2026-04-22 16:06 53.83821 -4.11531 6426 ft 161 kts 308°
2026-04-22 16:06 53.84537 -4.12999 6245 ft 162 kts 307°
2026-04-22 16:07 53.85255 -4.14475 6066 ft 163 kts 308°
2026-04-22 16:07 53.85978 -4.15959 5888 ft 164 kts 308°
2026-04-22 16:07 53.86697 -4.17461 5710 ft 165 kts 307°
2026-04-22 16:07 53.87418 -4.18974 5544 ft 166 kts 307°
2026-04-22 16:08 53.88145 -4.20494 5368 ft 166 kts 307°
2026-04-22 16:08 53.88875 -4.22017 5193 ft 166 kts 307°
2026-04-22 16:08 53.89613 -4.23536 5012 ft 166 kts 307°
2026-04-22 16:08 53.90345 -4.25056 4829 ft 166 kts 307°
2026-04-22 16:09 53.91061 -4.26570 4650 ft 167 kts 307°
2026-04-22 16:09 53.91782 -4.28118 4469 ft 167 kts 307°
2026-04-22 16:09 53.92469 -4.29698 4358 ft 163 kts 296°
2026-04-22 16:09 53.92878 -4.31455 4351 ft 158 kts 284°
2026-04-22 16:10 53.93236 -4.33224 4351 ft 157 kts 284°
2026-04-22 16:10 53.93592 -4.34974 4346 ft 157 kts 284°
2026-04-22 16:10 53.93827 -4.36129 4349 ft 156 kts 284°
2026-04-22 16:10 53.94299 -4.38460 4349 ft 156 kts 284°
2026-04-22 16:11 53.94654 -4.40217 4285 ft 161 kts 284°
2026-04-22 16:11 53.95012 -4.42031 4161 ft 166 kts 285°
2026-04-22 16:11 53.95367 -4.43860 4032 ft 161 kts 284°
2026-04-22 16:11 53.95715 -4.45662 3900 ft 159 kts 284°
2026-04-22 16:12 53.96060 -4.47449 3771 ft 159 kts 285°
2026-04-22 16:12 53.96403 -4.49229 3642 ft 158 kts 285°
2026-04-22 16:12 53.96744 -4.51010 3516 ft 158 kts 285°
2026-04-22 16:12 53.97074 -4.52799 3386 ft 159 kts 285°
2026-04-22 16:13 53.97400 -4.54609 3256 ft 160 kts 285°
2026-04-22 16:13 53.97721 -4.56426 3127 ft 161 kts 285°
2026-04-22 16:13 53.98031 -4.58225 3016 ft 159 kts 285°
2026-04-22 16:13 53.98329 -4.59995 3004 ft 154 kts 285°
2026-04-22 16:14 53.98624 -4.61760 2798 ft 155 kts 285°
2026-04-22 16:14 53.98914 -4.63531 2587 ft 155 kts 285°
2026-04-22 16:14 53.99197 -4.65301 2379 ft 155 kts 285°
2026-04-22 16:14 53.99477 -4.67061 2172 ft 154 kts 285°
2026-04-22 16:15 53.99749 -4.68804 2034 ft 151 kts 285°
2026-04-22 16:15 54.00012 -4.70502 2033 ft 150 kts 285°
2026-04-22 16:15 54.00274 -4.72212 2032 ft 149 kts 285°
2026-04-22 16:15 54.00531 -4.73923 2038 ft 149 kts 284°
2026-04-22 16:16 54.00799 -4.75622 2034 ft 148 kts 285°
2026-04-22 16:16 54.01080 -4.77310 2034 ft 148 kts 285°
2026-04-22 16:16 54.01366 -4.79000 2035 ft 149 kts 285°
2026-04-22 16:16 54.01655 -4.80697 2035 ft 149 kts 285°
2026-04-22 16:17 54.01944 -4.82393 2035 ft 149 kts 285°
2026-04-22 16:17 54.02232 -4.84078 2032 ft 147 kts 285°
2026-04-22 16:17 54.02514 -4.85723 2041 ft 146 kts 285°
2026-04-22 16:17 54.02798 -4.87378 2041 ft 145 kts 285°
2026-04-22 16:18 54.03198 -4.88916 2017 ft 140 kts 323°
2026-04-22 16:18 54.03982 -4.89236 2025 ft 102 kts 40°
2026-04-22 16:18 54.04416 -4.88460 2036 ft 90 kts 65°
2026-04-22 16:18 54.04818 -4.87628 2052 ft 92 kts 64°
2026-04-22 16:19 54.05227 -4.86771 2053 ft 95 kts 65°
2026-04-22 16:19 54.05643 -4.85890 2050 ft 96 kts 64°
2026-04-22 16:19 54.06047 -4.84993 2034 ft 93 kts 71°
2026-04-22 16:19 54.06233 -4.84006 2061 ft 85 kts 85°
2026-04-22 16:20 54.06352 -4.83027 2064 ft 86 kts 86°
2026-04-22 16:20 54.06443 -4.82022 2060 ft 86 kts 89°
2026-04-22 16:20 54.06514 -4.81035 2075 ft 85 kts 89°
2026-04-22 16:20 54.06629 -4.80051 2070 ft 86 kts 85°
2026-04-22 16:21 54.06742 -4.79033 1994 ft 87 kts 85°
2026-04-22 16:21 54.06878 -4.78045 1986 ft 85 kts 84°
2026-04-22 16:21 54.06982 -4.77037 1976 ft 89 kts 89°
2026-04-22 16:21 54.07026 -4.75925 1815 ft 97 kts 89°
2026-04-22 16:22 54.07324 -4.73727 1489 ft 87 kts 84°
2026-04-22 16:22 54.07364 -4.72831 1347 ft 62 kts 90°
2026-04-22 16:22 54.07372 -4.72108 1216 ft 64 kts 88°
2026-04-22 16:23 54.07521 -4.70637 1072 ft 64 kts 80°
2026-04-22 16:23 54.07583 -4.69872 934 ft 63 kts 89°
2026-04-22 16:23 54.07606 -4.69153 814 ft 59 kts 81°
2026-04-22 16:24 54.07700 -4.68475 736 ft 59 kts 75°
2026-04-22 16:24 54.07843 -4.67002 595 ft 65 kts 83°
2026-04-22 16:24 54.07894 -4.66261 454 ft 62 kts 83°
2026-04-22 16:25 54.07941 -4.65503 353 ft 62 kts 76°
2026-04-22 16:25 54.08114 -4.64125 163 ft 58 kts 78°
2026-04-22 16:25 54.08192 -4.63484 80 ft 49 kts 78°
2026-04-22 16:26 54.08241 -4.63091 45 ft 50 kts 78°
2026-04-22 16:26 54.08298 -4.62635 38 ft 30 kts 78°
2026-04-22 16:26 54.08349 -4.62232 36 ft 21 kts 81°
2026-04-22 16:26 54.08396 -4.61841 36 ft 44 kts 78°
2026-04-22 16:27 54.08434 -4.61527 36 ft 36 kts 79°
2026-04-22 16:27 54.08410 -4.61399 36 ft 8 kts 171°
2026-04-22 16:27 54.08355 -4.61438 35 ft 10 kts 240°
2026-04-22 16:27 54.08319 -4.61549 34 ft 12 kts 239°
2026-04-22 16:28 54.08283 -4.61587 34 ft 6 kts 152°
2026-04-22 16:28 54.08245 -4.61592 34 ft 7 kts 153°
2026-04-22 16:28 54.08243 -4.61571 34 ft 0 kts 14°